EZY879U EGKK-EGAC

Flight info

Callsign EZY879U
Flight time 1h 20m
Altitude 38000
Route LAM L10 BPK UN601 LESTA UP6 RODOL UM65 TENSO L603 BELOX DCT REMSI DCT NINEB M148 MAGEE
Aircraft A319/M-SDE2E3FGIJ1RWXYZ/LB1

Departure

Time 2026-05-04 19:12
Airport London Gatwick Airport (EGKK)

Arrival

Time 2026-05-04 20:33
Airport George Best Belfast City Airport (EGAC)
Time Latitude Longitude Altitude Speed Heading
2026-05-04 18:41 51.15852 -0.17518 210 ft 0 kts 347°
2026-05-04 18:50 51.15841 -0.17514 214 ft 3 kts 347°
2026-05-04 18:51 51.15821 -0.17507 205 ft 3 kts 347°
2026-05-04 18:51 51.15805 -0.17502 206 ft 3 kts 343°
2026-05-04 18:51 51.15787 -0.17489 214 ft 3 kts 317°
2026-05-04 18:51 51.15776 -0.17466 216 ft 3 kts 287°
2026-05-04 18:52 51.15772 -0.17435 213 ft 3 kts 269°
2026-05-04 18:52 51.15774 -0.17403 215 ft 3 kts 259°
2026-05-04 18:52 51.15778 -0.17372 215 ft 3 kts 255°
2026-05-04 18:52 51.15783 -0.17342 208 ft 2 kts 257°
2026-05-04 18:53 51.15786 -0.17324 213 ft 3 kts 257°
2026-05-04 18:53 51.15791 -0.17293 204 ft 3 kts 257°
2026-05-04 18:53 51.15793 -0.17275 214 ft 1 kts 257°
2026-05-04 18:57 51.15792 -0.17283 215 ft 4 kts 258°
2026-05-04 18:57 51.15778 -0.17392 204 ft 15 kts 256°
2026-05-04 18:57 51.15755 -0.17548 204 ft 13 kts 257°
2026-05-04 18:58 51.15737 -0.17678 204 ft 11 kts 258°
2026-05-04 18:58 51.15719 -0.17806 208 ft 13 kts 257°
2026-05-04 18:58 51.15698 -0.17962 204 ft 16 kts 259°
2026-05-04 18:58 51.15674 -0.18137 207 ft 16 kts 258°
2026-05-04 18:59 51.15653 -0.18288 207 ft 13 kts 257°
2026-05-04 18:59 51.15603 -0.18351 204 ft 9 kts 171°
2026-05-04 18:59 51.15565 -0.18337 206 ft 8 kts 168°
2026-05-04 18:59 51.15474 -0.18306 204 ft 11 kts 166°
2026-05-04 19:00 51.15424 -0.18287 204 ft 10 kts 167°
2026-05-04 19:00 51.15361 -0.18265 206 ft 9 kts 168°
2026-05-04 19:00 51.15293 -0.18243 204 ft 11 kts 167°
2026-05-04 19:00 51.15195 -0.18241 210 ft 12 kts 229°
2026-05-04 19:01 51.15178 -0.18378 204 ft 13 kts 256°
2026-05-04 19:01 51.15164 -0.18477 208 ft 14 kts 261°
2026-05-04 19:01 51.15136 -0.18689 203 ft 16 kts 257°
2026-05-04 19:01 51.15120 -0.18804 203 ft 16 kts 257°
2026-05-04 19:02 51.15094 -0.18986 204 ft 17 kts 256°
2026-05-04 19:02 51.15068 -0.19177 204 ft 18 kts 258°
2026-05-04 19:02 51.15043 -0.19366 214 ft 17 kts 256°
2026-05-04 19:02 51.15015 -0.19555 211 ft 18 kts 257°
2026-05-04 19:03 51.14989 -0.19749 205 ft 17 kts 258°
2026-05-04 19:03 51.14970 -0.19896 213 ft 13 kts 258°
2026-05-04 19:03 51.14949 -0.20047 203 ft 14 kts 257°
2026-05-04 19:03 51.14926 -0.20206 208 ft 15 kts 257°
2026-05-04 19:04 51.14906 -0.20343 207 ft 11 kts 257°
2026-05-04 19:04 51.14894 -0.20431 208 ft 8 kts 257°
2026-05-04 19:04 51.14882 -0.20521 212 ft 9 kts 258°
2026-05-04 19:04 51.14869 -0.20615 209 ft 9 kts 258°
2026-05-04 19:05 51.14856 -0.20714 203 ft 9 kts 257°
2026-05-04 19:05 51.14841 -0.20820 212 ft 11 kts 257°
2026-05-04 19:05 51.14823 -0.20946 209 ft 12 kts 258°
2026-05-04 19:05 51.14805 -0.21074 204 ft 12 kts 257°
2026-05-04 19:06 51.14779 -0.21203 206 ft 13 kts 253°
2026-05-04 19:06 51.14763 -0.21319 206 ft 5 kts 258°
2026-05-04 19:06 51.14761 -0.21336 204 ft 2 kts 258°
2026-05-04 19:06 51.14745 -0.21398 211 ft 7 kts 227°
2026-05-04 19:07 51.14727 -0.21406 206 ft 0 kts 176°
2026-05-04 19:07 51.14726 -0.21406 207 ft 0 kts 175°
2026-05-04 19:09 51.14722 -0.21406 204 ft 2 kts 175°
2026-05-04 19:09 51.14683 -0.21389 204 ft 7 kts 154°
2026-05-04 19:09 51.14646 -0.21337 206 ft 7 kts 156°
2026-05-04 19:09 51.14615 -0.21325 204 ft 3 kts 166°
2026-05-04 19:10 51.14598 -0.21318 213 ft 2 kts 166°
2026-05-04 19:10 51.14579 -0.21310 208 ft 5 kts 166°
2026-05-04 19:10 51.14530 -0.21245 207 ft 14 kts 120°
2026-05-04 19:10 51.14522 -0.21154 202 ft 0 kts 77°
2026-05-04 19:11 51.14522 -0.21152 202 ft 1 kts 77°
2026-05-04 19:12 51.14561 -0.20879 204 ft 64 kts 77°
2026-05-04 19:12 51.14931 -0.18210 538 ft 152 kts 77°
2026-05-04 19:12 51.15160 -0.16574 1285 ft 152 kts 76°
2026-05-04 19:13 51.15397 -0.14867 1817 ft 167 kts 76°
2026-05-04 19:13 51.15662 -0.12940 2219 ft 190 kts 76°
2026-05-04 19:13 51.15964 -0.10740 2620 ft 216 kts 76°
2026-05-04 19:13 51.16305 -0.08268 3147 ft 241 kts 76°
2026-05-04 19:14 51.17024 -0.05790 3883 ft 253 kts 53°
2026-05-04 19:14 51.18115 -0.03530 4673 ft 262 kts 52°
2026-05-04 19:14 51.19238 -0.01224 4932 ft 264 kts 52°
2026-05-04 19:14 51.20402 0.01029 5020 ft 264 kts 42°
2026-05-04 19:15 51.22040 0.02328 5771 ft 268 kts 11°
2026-05-04 19:15 51.23913 0.02588 6749 ft 272 kts
2026-05-04 19:15 51.25824 0.02689 7663 ft 277 kts
2026-05-04 19:15 51.27770 0.02779 8570 ft 283 kts
2026-05-04 19:16 51.29760 0.02870 9490 ft 288 kts
2026-05-04 19:16 51.31785 0.02960 10263 ft 298 kts
2026-05-04 19:16 51.33941 0.03050 10632 ft 321 kts
2026-05-04 19:16 51.36205 0.03011 11300 ft 330 kts 352°
2026-05-04 19:17 51.38411 0.01975 12100 ft 334 kts 338°
2026-05-04 19:17 51.40591 0.00613 12944 ft 337 kts 339°
2026-05-04 19:17 51.42787 -0.00773 13773 ft 341 kts 339°
2026-05-04 19:17 51.45007 -0.02175 14502 ft 345 kts 338°
2026-05-04 19:18 51.47252 -0.03590 15202 ft 349 kts 338°
2026-05-04 19:18 51.49358 -0.04920 15831 ft 354 kts 338°
2026-05-04 19:18 51.51669 -0.06389 16499 ft 360 kts 338°
2026-05-04 19:18 51.54008 -0.07875 17213 ft 363 kts 338°
2026-05-04 19:19 51.56370 -0.09372 17919 ft 367 kts 338°
2026-05-04 19:19 51.58765 -0.10886 18544 ft 372 kts 338°
2026-05-04 19:19 51.61193 -0.12421 19089 ft 378 kts 338°
2026-05-04 19:19 51.63649 -0.13977 19690 ft 381 kts 338°
2026-05-04 19:20 51.66095 -0.15531 20306 ft 385 kts 338°
2026-05-04 19:20 51.68596 -0.17121 20926 ft 388 kts 337°
2026-05-04 19:20 51.71113 -0.18724 21529 ft 391 kts 337°
2026-05-04 19:20 51.73662 -0.20347 22124 ft 395 kts 337°
2026-05-04 19:21 51.76228 -0.21982 22726 ft 399 kts 337°
2026-05-04 19:21 51.78824 -0.23639 23305 ft 403 kts 337°
2026-05-04 19:21 51.81438 -0.25312 23818 ft 406 kts 336°
2026-05-04 19:21 51.84073 -0.27000 24329 ft 408 kts 336°
2026-05-04 19:22 51.86722 -0.28696 24834 ft 411 kts 336°
2026-05-04 19:22 51.89391 -0.30406 25317 ft 413 kts 336°
2026-05-04 19:22 51.92075 -0.32126 25797 ft 416 kts 336°
2026-05-04 19:22 51.94774 -0.33858 26267 ft 419 kts 336°
2026-05-04 19:23 51.97491 -0.35608 26725 ft 422 kts 336°
2026-05-04 19:23 52.00224 -0.37374 27184 ft 424 kts 336°
2026-05-04 19:23 52.02973 -0.39158 27647 ft 427 kts 336°
2026-05-04 19:23 52.05739 -0.40958 28115 ft 429 kts 336°
2026-05-04 19:24 52.08489 -0.42843 28607 ft 429 kts 331°
2026-05-04 19:24 52.11087 -0.45235 29057 ft 430 kts 327°
2026-05-04 19:24 52.13667 -0.47741 29497 ft 433 kts 327°
2026-05-04 19:24 52.16259 -0.50264 29926 ft 435 kts 327°
2026-05-04 19:25 52.18866 -0.52802 30308 ft 438 kts 327°
2026-05-04 19:25 52.21490 -0.55352 30650 ft 441 kts 327°
2026-05-04 19:25 52.24130 -0.57917 30986 ft 443 kts 327°
2026-05-04 19:25 52.26787 -0.60503 31301 ft 446 kts 327°
2026-05-04 19:26 52.29455 -0.63101 31646 ft 448 kts 327°
2026-05-04 19:26 52.32123 -0.65702 32134 ft 446 kts 328°
2026-05-04 19:26 52.34780 -0.68299 32644 ft 444 kts 328°
2026-05-04 19:26 52.37425 -0.70891 33121 ft 442 kts 328°
2026-05-04 19:27 52.40029 -0.73440 33593 ft 441 kts 328°
2026-05-04 19:27 52.42657 -0.76016 34057 ft 440 kts 328°
2026-05-04 19:27 52.45283 -0.78603 34445 ft 440 kts 328°
2026-05-04 19:27 52.47904 -0.81190 34797 ft 439 kts 328°
2026-05-04 19:28 52.50520 -0.83778 35128 ft 440 kts 328°
2026-05-04 19:28 52.53141 -0.86371 35451 ft 440 kts 328°
2026-05-04 19:28 52.55758 -0.88960 35784 ft 439 kts 328°
2026-05-04 19:28 52.58373 -0.91549 36105 ft 439 kts 328°
2026-05-04 19:29 52.60985 -0.94141 36383 ft 439 kts 328°
2026-05-04 19:29 52.63598 -0.96741 36666 ft 439 kts 328°
2026-05-04 19:29 52.66208 -0.99341 36949 ft 439 kts 328°
2026-05-04 19:29 52.68820 -1.01942 37224 ft 439 kts 328°
2026-05-04 19:30 52.71440 -1.04550 37468 ft 440 kts 328°
2026-05-04 19:30 52.73939 -1.07425 37731 ft 438 kts 316°
2026-05-04 19:30 52.75956 -1.11174 37966 ft 437 kts 307°
2026-05-04 19:31 52.79666 -1.19107 38058 ft 436 kts 307°
2026-05-04 19:31 52.83342 -1.27061 38057 ft 435 kts 307°
2026-05-04 19:32 52.87013 -1.35014 38057 ft 435 kts 307°
2026-05-04 19:32 52.90684 -1.42975 38057 ft 435 kts 307°
2026-05-04 19:33 52.94354 -1.50942 38059 ft 435 kts 307°
2026-05-04 19:33 52.98022 -1.58933 38060 ft 436 kts 307°
2026-05-04 19:34 53.01690 -1.66950 38065 ft 436 kts 307°
2026-05-04 19:34 53.05355 -1.74975 38064 ft 436 kts 307°
2026-05-04 19:35 53.09014 -1.83020 38065 ft 436 kts 307°
2026-05-04 19:35 53.12640 -1.91039 38065 ft 436 kts 307°
2026-05-04 19:36 53.16282 -1.99116 38060 ft 436 kts 306°
2026-05-04 19:36 53.19928 -2.07201 38060 ft 436 kts 307°
2026-05-04 19:37 53.23569 -2.15315 38056 ft 437 kts 307°
2026-05-04 19:37 53.27192 -2.23430 38068 ft 436 kts 307°
2026-05-04 19:38 53.30815 -2.31569 38074 ft 436 kts 307°
2026-05-04 19:38 53.34428 -2.39698 38073 ft 435 kts 306°
2026-05-04 19:39 53.38029 -2.47840 38076 ft 435 kts 306°
2026-05-04 19:39 53.41634 -2.55996 38075 ft 435 kts 306°
2026-05-04 19:40 53.45229 -2.64144 38085 ft 435 kts 307°
2026-05-04 19:40 53.48816 -2.72317 38082 ft 435 kts 306°
2026-05-04 19:41 53.52388 -2.80505 38080 ft 434 kts 306°
2026-05-04 19:41 53.55955 -2.88705 38079 ft 434 kts 306°
2026-05-04 19:42 53.59519 -2.96923 38084 ft 434 kts 306°
2026-05-04 19:42 53.63077 -3.05144 38083 ft 434 kts 306°
2026-05-04 19:43 53.66634 -3.13375 38079 ft 434 kts 306°
2026-05-04 19:43 53.70180 -3.21615 38092 ft 434 kts 306°
2026-05-04 19:44 53.73723 -3.29884 37751 ft 433 kts 306°
2026-05-04 19:44 53.75487 -3.34002 37472 ft 432 kts 306°
2026-05-04 19:44 53.77162 -3.37919 37215 ft 432 kts 306°
2026-05-04 19:44 53.78917 -3.42039 36946 ft 432 kts 306°
2026-05-04 19:45 53.80671 -3.46171 36678 ft 432 kts 306°
2026-05-04 19:45 53.82422 -3.50298 36419 ft 432 kts 307°
2026-05-04 19:45 53.84173 -3.54425 36160 ft 432 kts 307°
2026-05-04 19:45 53.85925 -3.58549 35910 ft 431 kts 307°
2026-05-04 19:46 53.87676 -3.62673 35657 ft 430 kts 307°
2026-05-04 19:46 53.89414 -3.66783 35401 ft 428 kts 307°
2026-05-04 19:46 53.91139 -3.70884 35147 ft 426 kts 307°
2026-05-04 19:46 53.92851 -3.74970 34903 ft 424 kts 307°
2026-05-04 19:47 53.94552 -3.79040 34657 ft 420 kts 307°
2026-05-04 19:47 53.96201 -3.83096 34413 ft 416 kts 302°
2026-05-04 19:47 53.97650 -3.87337 34174 ft 414 kts 301°
2026-05-04 19:47 53.99078 -3.91558 33919 ft 411 kts 301°
2026-05-04 19:48 54.00491 -3.95738 33496 ft 405 kts 301°
2026-05-04 19:48 54.01415 -3.98476 33179 ft 403 kts 301°
2026-05-04 19:48 54.02802 -4.02596 32704 ft 399 kts 301°
2026-05-04 19:48 54.04174 -4.06680 32242 ft 396 kts 301°
2026-05-04 19:49 54.05532 -4.10729 31786 ft 392 kts 301°
2026-05-04 19:49 54.06979 -4.14637 31330 ft 388 kts 307°
2026-05-04 19:49 54.08535 -4.18377 30889 ft 386 kts 307°
2026-05-04 19:49 54.10077 -4.22089 30451 ft 383 kts 307°
2026-05-04 19:50 54.11608 -4.25788 30010 ft 381 kts 306°
2026-05-04 19:50 54.13127 -4.29462 29566 ft 377 kts 306°
2026-05-04 19:50 54.14629 -4.33102 29158 ft 373 kts 306°
2026-05-04 19:50 54.16116 -4.36706 28757 ft 370 kts 306°
2026-05-04 19:51 54.17589 -4.40277 28357 ft 366 kts 306°
2026-05-04 19:51 54.19047 -4.43812 27960 ft 362 kts 306°
2026-05-04 19:51 54.20489 -4.47317 27577 ft 359 kts 305°
2026-05-04 19:51 54.21913 -4.50791 27176 ft 355 kts 305°
2026-05-04 19:52 54.23327 -4.54240 26779 ft 352 kts 305°
2026-05-04 19:52 54.24724 -4.57651 26381 ft 349 kts 305°
2026-05-04 19:52 54.26107 -4.61037 25966 ft 346 kts 305°
2026-05-04 19:52 54.27483 -4.64420 25508 ft 350 kts 305°
2026-05-04 19:53 54.28859 -4.67804 25032 ft 351 kts 305°
2026-05-04 19:53 54.30256 -4.71242 24554 ft 352 kts 305°
2026-05-04 19:53 54.31654 -4.74682 24082 ft 352 kts 305°
2026-05-04 19:53 54.33048 -4.78118 23612 ft 351 kts 305°
2026-05-04 19:54 54.34438 -4.81550 23052 ft 350 kts 305°
2026-05-04 19:54 54.35825 -4.84979 22510 ft 350 kts 305°
2026-05-04 19:54 54.37209 -4.88409 21990 ft 350 kts 304°
2026-05-04 19:54 54.38593 -4.91841 21459 ft 349 kts 304°
2026-05-04 19:55 54.39973 -4.95273 20952 ft 349 kts 304°
2026-05-04 19:55 54.41345 -4.98691 20441 ft 348 kts 304°
2026-05-04 19:55 54.42719 -5.02116 19943 ft 348 kts 304°
2026-05-04 19:55 54.44087 -5.05535 19463 ft 347 kts 304°
2026-05-04 19:56 54.45454 -5.08942 19000 ft 346 kts 304°
2026-05-04 19:56 54.46815 -5.12314 18646 ft 341 kts 304°
2026-05-04 19:56 54.48162 -5.15640 18283 ft 337 kts 304°
2026-05-04 19:56 54.49496 -5.18926 17874 ft 333 kts 304°
2026-05-04 19:57 54.50922 -5.22044 17471 ft 330 kts 314°
2026-05-04 19:57 54.52662 -5.24601 17077 ft 328 kts 321°
2026-05-04 19:57 54.54450 -5.27013 16694 ft 325 kts 321°
2026-05-04 19:57 54.56220 -5.29411 16299 ft 323 kts 321°
2026-05-04 19:58 54.57977 -5.31795 15919 ft 321 kts 321°
2026-05-04 19:58 54.59725 -5.34174 15540 ft 319 kts 320°
2026-05-04 19:58 54.61459 -5.36541 15136 ft 318 kts 320°
2026-05-04 19:58 54.63193 -5.38913 14698 ft 318 kts 320°
2026-05-04 19:59 54.64926 -5.41285 14271 ft 318 kts 320°
2026-05-04 19:59 54.66660 -5.43660 13834 ft 318 kts 320°
2026-05-04 19:59 54.68393 -5.46033 13347 ft 318 kts 320°
2026-05-04 19:59 54.70121 -5.48401 12875 ft 317 kts 320°
2026-05-04 20:00 54.71842 -5.50768 12406 ft 315 kts 320°
2026-05-04 20:00 54.73554 -5.53124 11943 ft 314 kts 320°
2026-05-04 20:00 54.75256 -5.55465 11492 ft 312 kts 320°
2026-05-04 20:00 54.76926 -5.57850 11037 ft 309 kts 314°
2026-05-04 20:01 54.78083 -5.60928 10584 ft 306 kts 290°
2026-05-04 20:01 54.78372 -5.64540 10173 ft 304 kts 265°
2026-05-04 20:01 54.77731 -5.67893 10066 ft 295 kts 239°
2026-05-04 20:01 54.76329 -5.70337 10093 ft 283 kts 213°
2026-05-04 20:02 54.74509 -5.71363 10085 ft 273 kts 186°
2026-05-04 20:02 54.72622 -5.71333 10081 ft 264 kts 179°
2026-05-04 20:02 54.70822 -5.71161 10086 ft 262 kts 179°
2026-05-04 20:02 54.69007 -5.70967 10084 ft 261 kts 179°
2026-05-04 20:03 54.67192 -5.70769 10084 ft 261 kts 179°
2026-05-04 20:03 54.65378 -5.70568 10084 ft 261 kts 179°
2026-05-04 20:03 54.63562 -5.70366 10062 ft 262 kts 179°
2026-05-04 20:03 54.61740 -5.70162 9752 ft 262 kts 179°
2026-05-04 20:04 54.59912 -5.69962 9343 ft 263 kts 179°
2026-05-04 20:04 54.58083 -5.69770 8963 ft 264 kts 179°
2026-05-04 20:04 54.56252 -5.69579 8576 ft 264 kts 179°
2026-05-04 20:04 54.54420 -5.69388 8192 ft 263 kts 179°
2026-05-04 20:05 54.52600 -5.69199 7796 ft 260 kts 179°
2026-05-04 20:05 54.50819 -5.69011 7420 ft 253 kts 179°
2026-05-04 20:05 54.49074 -5.68822 7051 ft 250 kts 179°
2026-05-04 20:05 54.47362 -5.68936 6674 ft 245 kts 198°
2026-05-04 20:06 54.45790 -5.70010 6309 ft 243 kts 208°
2026-05-04 20:06 54.44271 -5.71250 6083 ft 239 kts 209°
2026-05-04 20:06 54.42773 -5.72489 6098 ft 239 kts 209°
2026-05-04 20:06 54.41272 -5.73733 6097 ft 239 kts 209°
2026-05-04 20:07 54.39771 -5.74977 6098 ft 239 kts 209°
2026-05-04 20:07 54.38274 -5.76218 6100 ft 239 kts 209°
2026-05-04 20:07 54.36773 -5.77460 6100 ft 239 kts 209°
2026-05-04 20:07 54.35287 -5.78737 6092 ft 238 kts 215°
2026-05-04 20:08 54.34195 -5.80757 6059 ft 232 kts 246°
2026-05-04 20:08 54.33896 -5.83389 5749 ft 224 kts 278°
2026-05-04 20:08 54.34470 -5.85812 5447 ft 221 kts 304°
2026-05-04 20:08 54.35398 -5.87908 5141 ft 221 kts 308°
2026-05-04 20:09 54.36354 -5.89955 4832 ft 220 kts 309°
2026-05-04 20:09 54.37312 -5.91996 4514 ft 219 kts 309°
2026-05-04 20:09 54.38262 -5.94022 4204 ft 218 kts 309°
2026-05-04 20:09 54.39188 -5.96015 4094 ft 207 kts 309°
2026-05-04 20:10 54.40057 -5.97892 3981 ft 198 kts 309°
2026-05-04 20:10 54.40913 -5.99742 3721 ft 197 kts 309°
2026-05-04 20:10 54.41743 -6.01540 3492 ft 186 kts 309°
2026-05-04 20:10 54.42536 -6.03265 3234 ft 182 kts 309°
2026-05-04 20:11 54.43298 -6.04930 3106 ft 172 kts 309°
2026-05-04 20:11 54.44008 -6.06487 3092 ft 161 kts 309°
2026-05-04 20:11 54.44717 -6.07947 3085 ft 158 kts 318°
2026-05-04 20:11 54.45742 -6.08483 3090 ft 160 kts
2026-05-04 20:12 54.46695 -6.07510 3093 ft 167 kts 51°
2026-05-04 20:12 54.47203 -6.05704 3108 ft 170 kts 66°
2026-05-04 20:12 54.47792 -6.03991 3096 ft 166 kts 40°
2026-05-04 20:12 54.48715 -6.02832 2993 ft 164 kts 31°
2026-05-04 20:13 54.49656 -6.01724 2809 ft 163 kts 31°
2026-05-04 20:13 54.50590 -6.00619 2598 ft 163 kts 31°
2026-05-04 20:13 54.51521 -5.99515 2379 ft 162 kts 32°
2026-05-04 20:13 54.52446 -5.98416 2158 ft 161 kts 32°
2026-05-04 20:14 54.53369 -5.97319 1930 ft 161 kts 32°
2026-05-04 20:14 54.54288 -5.96225 1714 ft 160 kts 32°
2026-05-04 20:14 54.55205 -5.95134 1491 ft 160 kts 32°
2026-05-04 20:14 54.56097 -5.94070 1283 ft 150 kts 32°
2026-05-04 20:15 54.56907 -5.93105 1071 ft 135 kts 33°
2026-05-04 20:15 54.57664 -5.92203 890 ft 130 kts 33°
2026-05-04 20:15 54.58400 -5.91326 719 ft 128 kts 34°
2026-05-04 20:15 54.59127 -5.90459 551 ft 126 kts 34°
2026-05-04 20:16 54.59847 -5.89600 387 ft 126 kts 33°
2026-05-04 20:16 54.60567 -5.88740 221 ft 126 kts 33°
2026-05-04 20:16 54.61317 -5.87842 423 ft 134 kts 33°
2026-05-04 20:16 54.62093 -5.86916 1180 ft 140 kts 33°
2026-05-04 20:17 54.62937 -5.85878 1745 ft 161 kts 32°
2026-05-04 20:17 54.63909 -5.84679 2211 ft 182 kts 32°
2026-05-04 20:17 54.65011 -5.83329 2690 ft 204 kts 31°
2026-05-04 20:17 54.66056 -5.81623 3064 ft 217 kts 55°
2026-05-04 20:18 54.66446 -5.79105 3095 ft 219 kts 92°
2026-05-04 20:18 54.65932 -5.76664 3091 ft 220 kts 129°
2026-05-04 20:18 54.64711 -5.75175 3090 ft 217 kts 167°
2026-05-04 20:18 54.63240 -5.75109 3100 ft 211 kts 194°
2026-05-04 20:19 54.61810 -5.75670 3092 ft 211 kts 198°
2026-05-04 20:19 54.60385 -5.76318 3090 ft 214 kts 198°
2026-05-04 20:19 54.58886 -5.77058 3089 ft 229 kts 199°
2026-05-04 20:19 54.57342 -5.77842 3090 ft 232 kts 199°
2026-05-04 20:20 54.55792 -5.78635 3089 ft 233 kts 199°
2026-05-04 20:20 54.54241 -5.79431 3090 ft 233 kts 199°
2026-05-04 20:20 54.52690 -5.80231 3090 ft 233 kts 199°
2026-05-04 20:20 54.51139 -5.81036 3093 ft 233 kts 199°
2026-05-04 20:21 54.49586 -5.81838 3095 ft 233 kts 199°
2026-05-04 20:21 54.48053 -5.82628 3093 ft 233 kts 199°
2026-05-04 20:21 54.44947 -5.84230 3095 ft 233 kts 199°
2026-05-04 20:22 54.43398 -5.85032 3096 ft 233 kts 199°
2026-05-04 20:22 54.41845 -5.85835 3096 ft 233 kts 199°
2026-05-04 20:22 54.40295 -5.86633 3104 ft 233 kts 199°
2026-05-04 20:22 54.38743 -5.87434 3100 ft 232 kts 199°
2026-05-04 20:23 54.37194 -5.88232 3101 ft 233 kts 199°
2026-05-04 20:23 54.35645 -5.89032 3106 ft 233 kts 199°
2026-05-04 20:23 54.34092 -5.89836 3102 ft 234 kts 199°
2026-05-04 20:23 54.32535 -5.90643 3104 ft 234 kts 199°
2026-05-04 20:24 54.30990 -5.91525 3096 ft 233 kts 208°
2026-05-04 20:24 54.29826 -5.93341 3106 ft 226 kts 243°
2026-05-04 20:24 54.29457 -5.95881 3108 ft 221 kts 276°
2026-05-04 20:24 54.29985 -5.98281 3104 ft 217 kts 310°
2026-05-04 20:25 54.31197 -5.99771 3110 ft 217 kts 335°
2026-05-04 20:25 54.32564 -6.00737 3096 ft 205 kts 338°
2026-05-04 20:25 54.33848 -6.01586 3101 ft 191 kts 339°
2026-05-04 20:25 54.35054 -6.02375 3101 ft 182 kts 339°
2026-05-04 20:26 54.36189 -6.03269 3094 ft 179 kts 321°
2026-05-04 20:26 54.37048 -6.04804 3107 ft 178 kts 310°
2026-05-04 20:26 54.37822 -6.06458 3103 ft 178 kts 309°
2026-05-04 20:26 54.38585 -6.08124 3113 ft 178 kts 309°
2026-05-04 20:27 54.39451 -6.09608 3098 ft 178 kts 333°
2026-05-04 20:27 54.40663 -6.09932 3127 ft 180 kts
2026-05-04 20:27 54.41911 -6.09628 3116 ft 181 kts
2026-05-04 20:27 54.43150 -6.09205 3109 ft 182 kts 14°
2026-05-04 20:28 54.44226 -6.08114 3156 ft 174 kts 32°
2026-05-04 20:28 54.45209 -6.06972 3118 ft 167 kts 31°
2026-05-04 20:28 54.46161 -6.05862 3109 ft 164 kts 31°
2026-05-04 20:28 54.47104 -6.04752 3112 ft 164 kts 31°
2026-05-04 20:29 54.48042 -6.03643 3101 ft 164 kts 31°
2026-05-04 20:29 54.48981 -6.02530 2965 ft 164 kts 32°
2026-05-04 20:29 54.49918 -6.01419 2773 ft 163 kts 31°
2026-05-04 20:29 54.50850 -6.00313 2561 ft 162 kts 32°
2026-05-04 20:30 54.51777 -5.99212 2342 ft 162 kts 32°
2026-05-04 20:30 54.52695 -5.98120 2127 ft 153 kts 32°
2026-05-04 20:30 54.53521 -5.97136 1919 ft 137 kts 32°
2026-05-04 20:30 54.54284 -5.96229 1739 ft 131 kts 32°
2026-05-04 20:31 54.55025 -5.95348 1559 ft 128 kts 32°
2026-05-04 20:31 54.55757 -5.94477 1389 ft 128 kts 32°
2026-05-04 20:31 54.56484 -5.93611 1208 ft 127 kts 33°
2026-05-04 20:31 54.57211 -5.92744 1029 ft 127 kts 33°
2026-05-04 20:32 54.57937 -5.91879 842 ft 127 kts 33°
2026-05-04 20:32 54.58663 -5.91013 671 ft 127 kts 34°
2026-05-04 20:32 54.59386 -5.90150 498 ft 126 kts 34°
2026-05-04 20:32 54.60106 -5.89282 325 ft 126 kts 34°
2026-05-04 20:33 54.60824 -5.88425 163 ft 125 kts 33°
2026-05-04 20:33 54.61529 -5.87581 17 ft 115 kts 33°
2026-05-04 20:33 54.61918 -5.87111 17 ft 21 kts 52°
2026-05-04 20:33 54.61931 -5.87105 17 ft 8 kts 212°
2026-05-04 20:34 54.61851 -5.87182 19 ft 15 kts 181°
2026-05-04 20:34 54.61807 -5.87105 18 ft 14 kts 122°
2026-05-04 20:34 54.61759 -5.87000 21 ft 9 kts 153°
2026-05-04 20:34 54.61714 -5.87004 21 ft 5 kts 211°
2026-05-04 20:35 54.61712 -5.87007 21 ft 0 kts 212°
2026-05-04 20:35 54.61690 -5.87030 21 ft 7 kts 214°
2026-05-04 20:35 54.61661 -5.87066 21 ft 8 kts 217°
2026-05-04 20:36 54.61627 -5.87093 21 ft 3 kts 150°
2026-05-04 20:36 54.61619 -5.87068 21 ft 3 kts 127°
2026-05-04 20:36 54.61606 -5.87037 21 ft 3 kts 125°
2026-05-04 20:36 54.61601 -5.87025 21 ft 1 kts 124°
2026-05-04 20:37 54.61599 -5.87020 21 ft 0 kts 124°